軌道要素
Epoch 2011 Nov. 15.0 TT = JDT 2455880.5
T 2011 Nov. 6.19818 TT MPCW
q 2.3029807 (2000.0) P Q
n 0.13313572 Peri. 221.06158 -0.03881041 -0.98146792
a 3.7984491 Node 232.01658 +0.96770136 +0.00989782
e 0.3937050 Incl. 13.77349 +0.24909402 -0.19137073
P 7.40
From 574 observations 2011 Nov. 28-2018 Sept. 16, mean residual 0".6.
|